GW1174 Weather Reports


time (UTC)temp
C
wind
direction
speed
KPH
gust
KPH
rain 1hr
cm
rain 24hr
cm
rain mn
cm
humidity
%
barometer
mb
20260901133017 21 315 1.6 8.0 0.00 0.05 0.03 60 1020.9
20260901132022 21 338 3.2 14.5 0.00 0.05 0.03 59 1020.9
20260901132017 6 292 3.2 3.2 0.00 0.51 0.51 69 1106.5
20260901131037 6 295 3.2 3.2 0.00 0.51 0.51 69 1107.1
20260901130017 6 298 3.2 3.2 0.00 0.51 0.51 70 1107.7
20260901125017 22 293 6.4 16.1 0.00 0.05 0.03 59 1021.4
20260901124037 5 304 3.2 3.2 0.00 0.51 0.51 71 1108.9
20260901123017 4 307 1.6 3.2 0.00 0.51 0.51 71 1109.4
20260901122017 20 293 8.0 19.3 0.00 0.05 0.03 63 1021.2
20260901121038 3 312 1.6 3.2 0.00 0.51 0.51 72 1110.5
20260901121018 21 338 3.2 16.1 0.00 0.05 0.03 62 1021.2
20260901120037 3 315 1.6 3.2 0.00 0.51 0.51 72 1111.0
20260901115017 2 317 1.6 1.6 0.00 0.51 0.51 73 1111.5
20260901114017 2 320 1.6 1.6 0.00 0.51 0.51 73 1112.0
20260901113017 21 248 8.0 16.1 0.00 0.05 0.03 63 1021.3
20260901112057 19 293 8.0 17.7 0.00 0.05 0.03 66 1021.3
20260901112017 1 325 1.6 1.6 0.00 0.51 0.51 74 1113.0
20260901111017 20 315 9.7 20.9 0.00 0.05 0.03 66 1021.4
20260901110037 20 293 8.0 19.3 0.00 0.05 0.03 66 1021.4
20260901105017 20 270 8.0 22.5 0.00 0.05 0.03 66 1021.3
20260901104017 0 333 1.6 1.6 0.00 0.51 0.51 76 1114.7
20260901103017 18 293 8.0 19.3 0.00 0.05 0.03 69 1021.2
20260901102017 0 337 1.6 1.6 0.00 0.51 0.51 76 1115.5
20260901101017 0 339 1.6 1.6 0.00 0.51 0.51 77 1115.9
20260901100017 0 341 1.6 1.6 0.00 0.51 0.51 77 1116.2
20260901095017 17 293 6.4 14.5 0.00 0.05 0.03 74 1021.3
20260901094017 0 344 0.0 1.6 0.00 0.51 0.51 77 1116.9
20260901093017 18 270 6.4 14.5 0.00 0.05 0.03 74 1021.5
20260901092037 17 293 4.8 14.5 0.00 0.05 0.03 74 1021.5
20260901091017 -1 349 0.0 0.0 0.00 0.51 0.51 78 1117.8
20260901090017 -1 350 0.0 0.0 0.00 0.51 0.51 78 1118.0
20260901085037 17 270 4.8 12.9 0.00 0.05 0.03 78 1021.4
20260901084017 17 293 4.8 12.9 0.00 0.05 0.03 78 1021.2
20260901083017 17 270 6.4 12.9 0.00 0.05 0.03 79 1021.3
20260901082016 -1 355 0.0 0.0 0.00 0.51 0.51 79 1118.9
20260901081037 17 293 3.2 12.9 0.00 0.05 0.03 80 1021.2
20260901080017 -1 356 0.0 0.0 0.00 0.51 0.51 79 1119.3
20260901075017 -1 357 0.0 0.0 0.00 0.51 0.51 80 1119.4
20260901074017 -1 358 0.0 0.0 0.00 0.51 0.51 80 1119.5
20260901073017 0 358 0.0 0.0 0.00 0.51 0.51 80 1119.7
20260901072037 16 293 1.6 4.8 0.00 0.05 0.03 86 1021.0
20260901071017 0 359 0.0 0.0 0.00 0.51 0.51 80 1119.8
20260901070017 0 360 0.0 0.0 0.00 0.51 0.51 80 1119.9
20260901065017 0 360 0.0 0.0 0.00 0.51 0.51 80 1119.9
20260901064037 0 360 0.0 0.0 0.00 0.51 0.51 80 1120.0
20260901063017 0 360 0.0 0.0 0.00 0.51 0.51 80 1120.0
20260901062036 14 0.0 1.6 0.00 0.05 0.03 91 1020.8
20260901061517 16 305 3.2 3.2 0.00 0.51 0.51 71 1109.1
20260901061016 14 293 1.6 6.4 0.00 0.05 0.03 92 1020.9
20260901060517 16 302 3.2 3.2 0.00 0.51 0.51 70 1108.5
20260901060016 14 293 1.6 3.2 0.00 0.05 0.03 92 1020.7
20260901055537 16 299 3.2 3.2 0.00 0.51 0.51 70 1107.9
20260901055036 13 293 1.6 4.8 0.00 0.05 0.03 92 1020.8
20260901054517 17 296 3.2 3.2 0.00 0.51 0.51 69 1107.3
20260901054037 13 293 1.6 6.4 0.00 0.05 0.03 92 1020.7
20260901053517 17 293 3.2 3.2 0.00 0.51 0.51 69 1106.7
20260901053016 13 293 1.6 4.8 0.00 0.05 0.03 92 1020.7
20260901052517 17 290 3.2 3.2 0.00 0.51 0.51 68 1106.1
20260901052016 13 0.0 4.8 0.00 0.05 0.03 91 1020.5
20260901051518 18 287 3.2 3.2 0.00 0.51 0.51 68 1105.5
20260901051016 13 0.0 4.8 0.00 0.05 0.03 91 1020.7
20260901050517 18 284 3.2 4.8 0.00 0.51 0.51 67 1104.9
20260901050016 13 270 1.6 6.4 0.00 0.05 0.03 91 1020.5
20260901045517 18 280 3.2 4.8 0.00 0.51 0.51 67 1104.2
20260901045038 13 225 4.8 8.0 0.00 0.05 0.03 91 1020.5
20260901044517 18 277 3.2 4.8 0.00 0.51 0.51 66 1103.6
20260901044016 13 225 6.4 12.9 0.00 0.05 0.03 91 1020.5
20260901043537 19 274 3.2 4.8 0.00 0.51 0.51 66 1102.9
20260901043016 13 203 8.0 16.1 0.00 0.05 0.03 91 1020.4
20260901042557 19 270 3.2 4.8 0.00 0.51 0.51 65 1102.3
20260901042017 13 203 6.4 11.3 0.00 0.05 0.03 91 1020.4
20260901041517 20 267 4.8 4.8 0.00 0.51 0.51 64 1101.6
20260901041016 13 225 4.8 8.0 0.00 0.05 0.03 91 1020.4
20260901040517 20 263 4.8 4.8 0.00 0.51 0.51 64 1100.9
20260901040016 13 203 4.8 8.0 0.00 0.10 0.03 91 1020.4
20260901035517 20 260 4.8 4.8 0.00 0.51 0.51 63 1100.2
20260901035016 13 225 4.8 9.7 0.00 0.18 0.03 91 1020.4
20260901034517 20 256 4.8 4.8 0.00 0.51 0.51 63 1099.5
20260901034016 13 203 4.8 8.0 0.00 0.20 0.03 91 1020.3
20260901033517 20 253 4.8 6.4 0.00 0.51 0.51 62 1098.8
20260901033016 13 180 4.8 11.3 0.00 0.61 0.03 91 1020.3
20260901032517 20 249 4.8 6.4 0.00 0.51 0.51 62 1098.1
20260901032056 13 203 4.8 8.0 0.00 0.61 0.03 91 1020.2
20260901031517 21 246 4.8 6.4 0.00 0.51 0.51 61 1097.4
20260901031016 13 203 3.2 6.4 0.00 0.61 0.03 91 1020.2
20260901030517 21 242 4.8 6.4 0.00 0.51 0.51 60 1096.6
20260901030016 13 158 3.2 8.0 0.00 0.61 0.03 91 1020.2
20260901025557 21 238 4.8 6.4 0.00 0.51 0.51 60 1095.9
20260901025016 13 180 4.8 9.7 0.00 0.61 0.03 91 1020.2
20260901024517 21 234 4.8 6.4 0.00 0.51 0.51 59 1095.2
20260901024036 13 180 6.4 12.9 0.00 0.61 0.03 91 1020.1
20260901023517 21 231 6.4 6.4 0.00 0.51 0.51 58 1094.4
20260901023036 13 180 6.4 9.7 0.00 0.61 0.03 91 1020.2
20260901022517 21 227 6.4 6.4 0.00 0.51 0.51 58 1093.7
20260901022016 13 180 4.8 9.7 0.00 0.61 0.03 91 1020.2
20260901021517 21 223 6.4 8.0 0.00 0.51 0.51 57 1092.9
20260901021036 13 158 4.8 9.7 0.00 0.61 0.03 91 1020.1
20260901020517 21 219 6.4 8.0 0.00 0.51 0.51 57 1092.2
20260901020016 13 158 6.4 11.3 0.00 0.61 0.03 91 1020.0
20260901015517 21 215 6.4 8.0 0.00 0.51 0.51 56 1091.4
20260901015018 13 158 4.8 9.7 0.00 0.61 0.03 90 1019.9
20260901014517 21 212 6.4 8.0 0.03 0.51 0.51 55 1090.6
20260901014018 14 158 4.8 9.7 0.00 0.61 0.03 90 1019.7
20260901013517 21 208 6.4 8.0 0.05 0.51 0.51 55 1089.9
20260901013018 13 158 4.8 9.7 0.00 0.61 0.03 90 1019.7
20260901012557 20 204 6.4 8.0 0.08 0.51 0.51 54 1089.1
20260901012037 13 158 4.8 12.9 0.00 0.61 0.03 90 1019.5
20260901011517 20 200 6.4 8.0 0.13 0.51 0.51 53 1088.3
20260901011017 13 180 6.4 9.7 0.00 0.61 0.03 90 1019.6
20260901010517 20 196 8.0 8.0 0.15 0.51 0.51 53 1087.6
20260901010037 13 158 4.8 8.0 0.00 0.61 0.03 90 1019.5
20260901005517 20 192 8.0 9.7 0.18 0.51 0.51 52 1086.8
20260901005018 14 158 3.2 6.4 0.00 0.61 0.03 90 1019.2
20260901004517 20 188 8.0 9.7 0.18 0.51 0.48 51 1086.0
20260901004016 13 158 3.2 6.4 0.00 0.61 0.03 89 1019.1
20260901003517 20 184 8.0 9.7 0.18 0.51 0.46 51 1085.2
20260901003018 13 158 3.2 6.4 0.00 0.61 0.03 89 1019.2
20260901002517 19 180 8.0 9.7 0.18 0.51 0.43 50 1084.5
20260901002018 13 203 1.6 4.8 0.00 0.61 0.03 89 1019.1
20260901001517 19 176 8.0 9.7 0.15 0.51 0.38 49 1083.7
20260901001017 13 225 3.2 8.0 0.00 0.61 0.03 88 1019.1
20260901000517 18 173 8.0 9.7 0.15 0.51 0.36 49 1082.9
20260901000017 13 225 1.6 6.4 0.00 0.61 0.03 88 1019.0
20260831235517 18 169 8.0 9.7 0.15 0.51 0.33 48 1082.1
20260831235017 14 225 1.6 4.8 0.03 0.61 0.03 88 1019.2
20260831234537 18 165 8.0 11.3 0.18 0.51 0.30 47 1081.4
20260831234017 14 225 3.2 6.4 0.03 0.61 0.03 88 1019.1
20260831233517 18 161 9.7 11.3 0.18 0.51 0.28 47 1080.6
20260831233017 14 225 6.4 9.7 0.03 0.61 0.03 88 1019.1
20260831232517 17 157 9.7 11.3 0.18 0.51 0.25 46 1079.8
20260831232017 14 225 3.2 6.4 0.03 0.61 0.03 87 1019.0
20260831231517 17 153 9.7 11.3 0.18 0.51 0.23 45 1079.0
20260831231017 15 225 1.6 4.8 0.03 0.61 0.03 88 1019.1
20260831230517 17 149 9.7 11.3 0.18 0.51 0.20 45 1078.3
20260831230037 15 225 4.8 9.7 0.03 0.61 0.03 87 1019.1
20260831225517 16 145 9.7 11.3 0.18 0.51 0.18 44 1077.5
20260831225017 15 225 8.0 14.5 0.00 0.58 0.00 87 1019.3
20260831224557 16 141 9.7 11.3 0.13 0.51 0.13 44 1076.8
20260831224017 15 248 4.8 9.7 0.03 0.58 0.00 87 1019.4
20260831223517 16 138 9.7 11.3 0.10 0.51 0.10 43 1076.0
20260831223017 15 225 6.4 12.9 0.03 0.58 0.00 86 1019.3
20260831222517 15 134 9.7 12.9 0.08 0.51 0.08 42 1075.2
20260831222017 15 225 6.4 12.9 0.03 0.58 0.00 86 1019.3
20260831221517 15 130 9.7 12.9 0.05 0.51 0.05 42 1074.5
20260831221021 15 203 4.8 11.3 0.03 0.58 0.00 86 1019.2
20260831220517 15 126 9.7 12.9 0.03 0.51 0.03 41 1073.8
20260831220017 15 248 3.2 6.4 0.03 0.58 0.58 85 1019.0
20260831215518 14 122 11.3 12.9 0.00 0.51 0.51 40 1073.0
20260831215036 16 315 3.2 6.4 0.03 0.58 0.58 84 1019.2
20260831214557 13 119 11.3 12.9 0.00 0.51 0.51 40 1072.3
20260831214036 16 293 4.8 8.0 0.00 0.56 0.56 82 1019.2
20260831213517 13 115 11.3 12.9 0.00 0.51 0.51 39 1071.6
20260831213036 16 270 4.8 12.9 0.00 0.56 0.56 80 1019.0
20260831212517 12 111 11.3 12.9 0.00 0.51 0.51 39 1070.8
20260831212016 16 270 4.8 12.9 0.00 0.56 0.56 79 1018.7
20260831211517 12 108 11.3 12.9 0.00 0.51 0.51 38 1070.1
20260831211016 16 225 8.0 17.7 0.00 0.56 0.56 79 1018.5
20260831210517 12 104 11.3 14.5 0.00 0.51 0.51 37 1069.4
20260831210016 16 225 8.0 17.7 0.00 0.56 0.56 78 1018.6
20260831205517 11 101 11.3 14.5 0.00 0.51 0.51 37 1068.7
20260831205016 16 270 3.2 9.7 0.00 0.56 0.56 76 1018.4
20260831204517 11 97 11.3 14.5 0.00 0.51 0.51 36 1068.0
20260831204016 16 248 8.0 14.5 0.00 0.56 0.56 75 1018.2
20260831203517 10 94 11.3 14.5 0.00 0.51 0.51 36 1067.3
20260831203016 17 248 6.4 14.5 0.00 0.56 0.56 75 1018.3
20260831202517 10 90 11.3 14.5 0.00 0.51 0.51 35 1066.6
20260831202016 17 225 9.7 19.3 0.00 0.56 0.56 74 1018.1
20260831201538 9 87 12.9 14.5 0.00 0.51 0.51 34 1066.0
20260831201016 17 225 8.0 14.5 0.00 0.56 0.56 74 1017.9
20260831200517 8 84 12.9 14.5 0.00 0.51 0.51 34 1065.3
20260831200016 17 270 9.7 19.3 0.00 0.56 0.56 73 1017.5
20260831195537 8 80 12.9 14.5 0.00 0.51 0.51 33 1064.7
20260831195016 17 225 11.3 20.9 0.00 0.56 0.56 72 1017.4
20260831194537 8 77 12.9 14.5 0.00 0.51 0.51 33 1064.0
20260831194016 17 225 16.1 27.4 0.00 0.56 0.56 71 1017.3
20260831193517 7 74 12.9 16.1 0.00 0.51 0.51 32 1063.4
20260831193016 17 225 14.5 27.4 0.00 0.56 0.56 68 1017.0
20260831192518 7 71 12.9 16.1 0.00 0.51 0.51 32 1062.8
20260831192016 18 225 11.3 19.3 0.00 0.56 0.56 65 1017.0
20260831191517 6 68 12.9 16.1 0.00 0.51 0.51 31 1062.2
20260831191017 18 225 12.9 32.2 0.00 0.56 0.56 64 1017.1
20260831190517 6 65 12.9 16.1 0.00 0.51 0.51 31 1061.6
20260831190017 18 248 12.9 25.7 0.00 0.56 0.56 62 1017.1
20260831185517 5 62 12.9 16.1 0.00 0.51 0.51 30 1061.0
20260831185017 19 225 17.7 30.6 0.00 0.56 0.56 61 1016.9
20260831184517 5 59 12.9 16.1 0.00 0.51 0.51 30 1060.4
20260831184017 20 248 16.1 25.7 0.00 0.56 0.56 60 1016.9
20260831183517 5 56 12.9 16.1 0.00 0.51 0.51 29 1059.8
20260831183017 20 225 14.5 29.0 0.00 0.56 0.56 59 1016.4
20260831182557 4 53 14.5 16.1 0.00 0.51 0.51 29 1059.3
20260831182017 20 225 11.3 24.1 0.00 0.56 0.56 59 1016.1
20260831181517 3 50 14.5 16.1 0.00 0.51 0.51 28 1058.7
20260831181036 20 225 12.9 27.4 0.00 0.56 0.56 58 1015.9
20260831180518 3 48 14.5 16.1 0.00 0.51 0.51 28 1058.2
20260831180037 20 225 12.9 27.4 0.00 0.56 0.56 57 1015.8
20260831175517 3 45 14.5 17.7 0.00 0.51 0.51 27 1057.7
20260831175018 20 225 14.5 22.5 0.00 0.56 0.56 57 1015.9
20260831174517 2 42 14.5 17.7 0.00 0.51 0.51 27 1057.2
20260831174017 20 270 11.3 22.5 0.00 0.56 0.56 57 1016.0
20260831173517 2 40 14.5 17.7 0.00 0.51 0.51 27 1056.7
20260831173016 20 225 12.9 24.1 0.00 0.56 0.56 57 1016.0
20260831172517 2 37 14.5 17.7 0.00 0.51 0.51 26 1056.2
20260831172016 20 225 9.7 19.3 0.00 0.56 0.56 57 1015.8
20260831171517 1 35 14.5 17.7 0.00 0.51 0.51 26 1055.7
20260831171016 21 225 11.3 20.9 0.00 0.56 0.56 56 1015.7
20260831170517 1 33 14.5 17.7 0.00 0.51 0.51 25 1055.3
20260831170037 21 225 9.7 22.5 0.00 0.56 0.56 56 1015.7
20260831165517 1 31 14.5 17.7 0.00 0.51 0.51 25 1054.8
20260831165016 21 270 11.3 17.7 0.00 0.56 0.56 57 1016.0
20260831164517 1 28 14.5 17.7 0.00 0.51 0.51 25 1054.4
20260831164017 22 248 12.9 25.7 0.00 0.56 0.56 55 1016.0
20260831163517 0 26 14.5 17.7 0.00 0.51 0.51 24 1054.0
20260831163017 22 225 8.0 14.5 0.00 0.56 0.56 56 1016.0
20260831162517 0 24 14.5 17.7 0.00 0.51 0.51 24 1053.6
20260831162017 22 248 8.0 14.5 0.00 0.56 0.56 56 1015.8
20260831161517 0 22 14.5 17.7 0.00 0.51 0.51 24 1053.2
20260831161016 22 203 11.3 20.9 0.00 0.56 0.56 56 1015.8
20260831160517 0 21 14.5 17.7 0.00 0.51 0.51 23 1052.8
20260831160016 22 225 11.3 20.9 0.00 0.56 0.56 55 1015.7
20260831155517 0 19 14.5 17.7 0.00 0.51 0.51 23 1052.5
20260831155016 22 248 9.7 19.3 0.00 0.56 0.56 55 1015.7
20260831154537 0 17 16.1 17.7 0.00 0.51 0.51 23 1052.1
20260831154117 22 225 14.5 29.0 0.00 0.56 0.56 53 1015.7
20260831153517 0 15 16.1 19.3 0.00 0.51 0.51 23 1051.8
20260831153017 22 270 12.9 20.9 0.00 0.56 0.56 54 1015.5
20260831152516 0 14 16.1 19.3 0.00 0.51 0.51 22 1051.5
20260831152018 23 225 14.5 30.6 0.00 0.56 0.56 52 1015.6
20260831151517 -1 12 16.1 19.3 0.00 0.51 0.51 22 1051.2
20260831151016 23 225 12.9 24.1 0.00 0.56 0.56 51 1015.6
20260831150517 -1 11 16.1 19.3 0.00 0.51 0.51 22 1051.0
20260831150016 23 203 12.9 32.2 0.00 0.56 0.56 52 1015.5
20260831145517 -1 10 16.1 19.3 0.00 0.51 0.51 22 1050.7
20260831145016 22 225 17.7 33.8 0.00 0.56 0.56 52 1015.5
20260831144517 -1 8 16.1 19.3 0.00 0.51 0.51 21 1050.4
20260831144016 23 270 14.5 22.5 0.00 0.56 0.56 54 1015.5
20260831143517 -1 7 16.1 19.3 0.00 0.51 0.51 21 1050.2
20260831143016 23 225 14.5 22.5 0.00 0.56 0.56 54 1015.6
20260831142517 -1 6 16.1 19.3 0.00 0.51 0.51 21 1050.0
20260831142016 23 225 11.3 19.3 0.00 0.56 0.56 56 1015.7
20260831141537 -1 5 16.1 19.3 0.00 0.51 0.51 21 1049.8
20260831141036 23 248 14.5 24.1 0.00 0.56 0.56 56 1015.8
20260831140517 -1 4 16.1 19.3 0.00 0.51 0.51 21 1049.6
20260831140016 22 225 11.3 17.7 0.00 0.56 0.56 59 1015.8
20260831135517 -1 4 16.1 19.3 0.00 0.51 0.51 21 1049.5
20260831135016 23 203 9.7 19.3 0.00 0.56 0.56 57 1015.7
20260831134537 -1 3 16.1 19.3 0.00 0.51 0.51 20 1049.3
20260831134016 23 203 12.9 22.5 0.00 0.56 0.56 58 1015.8